User: anonymous   Login
Location: Balaclava NSW 2575, Australia
(34.4510°S, 150.4953°E)
Time: 16:42:00
(UTC+10:00)
Language:

Courier 1B - Orbit

View from above orbital plane
View from above orbital plane
View from above satellite
View from above satellite

Ground track
Ground track

The orbit data is extracted from the following two-line orbital elements,

1 00058U 60013A   21165.42374024  .00000084  00000-0 -48636-5 0  9999
2 00058  28.3290  58.2522 0165068 186.0643 173.7894 13.46327307987433
Epoch (UTC): 14 June 2021 10:10:11
Eccentricity: 0.0165068
inclination: 28.3290°
perigee height: 962 km
apogee height: 1209 km
right ascension of ascending node: 58.2522°
argument of perigee: 186.0643°
revolutions per day: 13.46327307
mean anomaly at epoch: 173.7894°
orbit number at epoch: 98743

The dashed part of the orbit path shows where the satellite is in the earth's shadow,  

DLR